Wind_Speed
41 41 40 40 41 41 41 41 41 42 42 43 43 45 46 46 47 46 46 46 45 45 44 44 44 45 45 45 45 45 45 43 41 39 38 40 40 42 42 42 41 40 40
41 41 41 41 42 42 42 42 42 42 43 43 44 45 46 47 48 48 48 48 48 48 48 47 46 47 47 47 48 48 48 48 45 42 41 41 41 42 44 43 43 42 42
41 42 42 42 42 42 42 42 42 42 43 44 44 45 46 46 47 48 49 49 49 49 50 49 49 49 49 49 50 50 51 51 50 47 45 45 44 44 45 44 43 43 44
42 42 42 42 42 42 41 41 41 42 43 43 44 45 46 47 48 48 49 49 49 50 50 51 51 51 51 52 52 53 53 53 54 52 49 48 47 47 47 46 45 44 44
43 43 43 43 42 42 41 41 41 42 43 44 44 45 45 46 46 47 47 47 48 49 50 51 51 52 52 53 53 54 55 54 55 56 55 52 50 49 49 48 46 45 45
44 44 43 43 42 42 41 41 42 41 41 42 42 42 42 43 43 43 44 44 45 47 48 50 51 52 52 53 54 55 56 56 56 57 57 55 52 51 49 50 48 46 44
45 44 44 43 42 42 42 41 41 41 41 41 41 41 41 40 39 39 40 40 41 43 45 47 49 51 52 52 54 55 57 58 57 56 57 57 55 54 50 50 49 49 47
45 45 44 43 42 42 41 40 40 40 40 40 39 39 38 37 36 35 35 35 35 37 39 42 45 48 51 52 53 55 56 58 58 57 56 56 56 56 53 49 48 49 49
45 45 44 43 42 41 40 39 39 39 39 38 37 37 35 34 32 31 30 29 30 32 34 37 41 44 45 49 51 53 54 56 57 57 57 56 56 56 54 52 50 48 47
45 44 43 42 41 40 39 39 39 38 37 36 36 35 33 31 29 27 26 25 26 28 30 33 37 40 42 44 47 50 52 54 55 56 56 55 55 56 54 52 50 49 48
45 44 43 42 41 40 39 39 38 37 36 35 34 32 30 28 25 23 22 21 22 24 26 29 32 36 38 42 44 45 47 51 53 54 54 54 54 54 53 52 50 49 47
46 44 43 42 41 40 39 38 37 36 35 34 32 30 27 25 22 20 19 18 19 21 23 26 30 33 36 39 41 42 44 46 49 51 52 52 52 52 51 51 50 49 47
45 44 43 41 40 40 39 37 36 34 34 32 30 27 25 23 20 17 16 15 16 18 20 23 27 31 35 37 39 40 41 42 44 47 48 49 50 50 49 49 49 49 50
45 44 42 40 40 40 37 36 34 33 32 30 28 26 24 22 18 15 13 11 12 14 16 20 24 28 31 34 36 37 38 39 40 42 44 46 47 48 48 48 48 49 49
45 43 41 40 40 38 37 35 33 32 30 29 26 25 22 20 17 12 8 6 7 10 14 18 22 25 28 31 34 35 37 37 37 39 40 42 43 44 45 46 47 48 49
44 42 40 39 39 38 36 34 32 31 29 27 25 23 21 19 16 12 7 2 4 8 13 18 21 23 25 28 32 35 35 35 36 37 38 40 42 43 43 44 45 46 47
43 41 39 38 38 36 35 33 31 29 28 25 24 22 19 17 15 11 7 2 3 7 12 16 20 22 23 26 29 32 34 34 35 35 36 38 40 41 42 43 44 45 46
42 41 38 37 37 35 34 32 30 28 26 24 22 20 17 15 13 10 7 4 5 7 11 15 18 21 22 25 26 29 31 32 33 33 35 36 37 38 40 42 43 44 45
41 39 37 36 35 34 32 31 30 27 25 23 21 19 16 13 11 8 6 4 5 7 9 13 16 18 21 22 24 25 28 30 30 31 33 34 35 36 38 40 42 44 44
39 37 35 35 34 32 31 30 28 27 24 22 19 17 15 13 10 8 5 3 4 6 8 11 13 16 19 20 22 23 25 26 28 29 31 32 33 35 37 39 40 42 42
37 35 34 33 31 29 29 28 27 25 23 21 19 17 15 12 10 8 6 4 3 5 7 9 11 13 16 18 20 22 23 24 26 27 29 30 31 33 36 38 39 41 42
35 33 31 30 28 27 26 26 25 24 23 21 19 16 15 13 11 9 7 4 2 3 6 8 10 12 14 16 18 20 22 23 24 25 27 28 29 31 34 36 38 40 42
33 30 29 27 25 24 24 23 23 22 21 21 19 17 15 14 12 10 8 5 3 3 5 7 8 10 12 15 17 18 20 21 22 24 26 27 28 29 31 34 37 38 41
30 28 27 25 22 21 21 21 21 20 20 19 19 17 16 14 13 12 10 8 6 5 5 6 7 8 10 13 15 18 19 20 20 22 24 26 27 28 29 30 32 36 39
28 25 24 22 20 18 18 18 18 19 18 17 17 17 16 16 15 14 13 11 9 8 7 6 6 7 8 10 13 15 17 18 19 20 22 24 26 27 28 29 31 33 35
25 23 21 20 17 16 15 15 15 16 16 15 15 15 15 15 15 15 15 15 14 13 12 11 11 11 12 12 13 14 15 17 19 19 21 23 24 26 26 27 29 32 33
Wind_Direction
318 316 314 312 309 307 304 300 297 294 291 289 287 284 282 280 277 274 271 267 264 260 257 253 250 245 242 236 231 229 226 224 223 221 221 220 217 216 216 215 214 215 215
319 317 315 314 311 308 306 302 299 296 293 291 289 286 283 280 277 274 271 267 263 259 256 252 249 246 242 238 232 229 227 225 222 220 220 220 218 216 215 216 216 215 216
322 320 318 316 313 311 308 305 303 300 297 295 293 289 285 282 279 275 272 268 262 257 254 251 247 244 241 237 233 229 227 225 223 220 220 219 218 218 216 216 216 217 217
323 321 320 318 315 313 310 307 305 303 301 299 296 292 288 285 281 277 273 267 261 256 252 249 246 242 239 236 233 229 226 224 223 221 220 220 219 218 216 216 217 217 217
325 323 321 319 317 314 312 310 308 306 304 302 299 295 292 288 283 278 273 267 261 255 251 247 244 241 237 235 232 228 226 224 224 222 221 221 219 218 217 216 217 218 217
327 325 323 321 319 317 315 313 312 310 308 306 304 300 296 291 285 280 273 266 260 255 249 245 242 239 236 233 230 227 225 224 223 222 222 221 220 219 217 217 217 217 217
329 327 325 323 322 320 318 316 315 313 311 309 306 303 299 294 288 282 275 268 261 254 248 243 239 235 232 230 228 226 225 224 222 222 222 221 220 220 220 219 218 219 219
330 328 327 325 324 323 322 320 319 317 315 312 309 306 302 297 291 285 277 269 260 252 245 240 235 231 230 226 225 224 224 224 223 222 222 222 220 221 221 221 219 217 218
331 330 328 327 327 326 324 323 322 321 318 316 313 310 306 301 294 286 278 269 258 249 242 237 231 229 227 225 223 222 222 222 223 223 223 222 221 221 221 221 220 219 218
332 331 330 330 329 328 327 326 325 324 323 321 317 313 309 304 297 289 281 270 258 248 241 235 230 226 224 221 219 219 220 220 220 221 222 222 221 221 221 221 221 221 220
334 333 332 332 332 331 330 329 328 327 327 326 323 318 315 309 300 291 283 270 257 247 240 233 227 222 220 218 216 215 216 218 219 220 220 221 220 220 221 219 218 219 220
336 334 334 334 334 334 333 332 331 331 331 331 329 326 321 315 307 296 285 272 256 243 237 230 222 218 216 213 212 212 213 216 217 217 218 219 219 219 219 219 219 218 218
337 336 336 335 336 336 335 335 335 334 335 335 334 333 329 324 316 305 291 275 255 240 232 224 217 212 211 209 207 208 210 213 214 214 215 215 216 216 216 216 216 216 217
338 338 338 338 338 338 338 338 338 338 338 339 339 339 337 334 327 316 300 277 249 229 221 212 207 204 203 202 203 204 206 208 210 210 211 212 214 214 214 214 215 214 215
339 339 339 339 340 341 341 341 341 341 341 343 343 345 345 344 341 335 318 284 236 213 205 197 196 195 196 198 199 200 202 204 205 206 207 208 210 212 213 214 215 216 216
339 339 340 341 342 342 343 343 343 343 344 347 348 350 353 352 352 350 346 312 206 196 193 190 190 192 194 196 196 198 199 200 202 203 204 206 208 209 210 212 212 213 214
339 339 340 342 343 344 345 346 346 346 347 349 351 353 357 360 3 5 11 42 154 170 177 181 185 187 189 192 193 194 196 198 199 200 201 203 206 208 209 208 210 212 212
339 339 341 343 345 346 347 348 350 350 349 352 354 356 359 3 9 20 34 68 120 151 165 173 179 184 187 190 192 193 196 197 198 199 200 202 204 206 207 207 209 210 211
338 340 341 343 346 348 349 351 352 353 353 354 358 1 3 6 13 23 43 73 105 136 157 169 176 182 185 189 192 195 196 197 199 200 201 202 203 205 206 207 208 209 209
338 339 341 343 347 350 353 353 354 356 357 358 2 5 8 12 19 29 44 83 118 135 150 165 174 181 187 191 193 194 195 197 198 200 202 203 204 205 206 206 207 207 207
337 339 340 344 348 351 354 357 359 2 4 5 9 11 13 16 23 29 40 67 119 149 159 167 174 180 186 190 192 195 198 200 201 203 203 203 205 206 206 205 205 205 206
335 337 339 343 347 351 356 1 5 8 11 12 15 17 19 20 24 31 36 50 98 160 172 179 184 187 190 192 194 196 197 199 201 204 205 206 207 206 205 204 204 204 204
332 335 337 341 346 351 356 2 7 10 13 17 21 22 23 26 28 30 38 54 92 148 165 173 179 187 193 195 197 198 199 200 201 203 205 204 201 200 200 201 202 201 201
329 331 334 338 343 348 354 1 7 10 14 19 23 25 28 30 31 34 43 57 75 102 139 165 180 187 195 199 200 199 199 199 200 202 202 199 195 194 195 196 196 196 197
325 328 332 336 340 345 352 360 6 12 17 22 26 30 33 37 40 44 49 57 68 80 96 114 138 152 161 170 178 182 186 187 188 189 189 189 189 188 188 189 189 188 190
322 324 329 333 337 343 350 359 6 14 19 25 30 35 39 44 49 53 57 63 69 75 85 95 102 113 126 133 142 153 163 169 172 173 175 178 178 178 180 182 184 184 186
Height
5757 5750 5744 5738 5733 5727 5721 5716 5711 5707 5702 5698 5695 5692 5689 5687 5686 5686 5686 5687 5689 5691 5693 5696 5700 5704 5708 5714 5720 5726 5731 5737 5743 5749 5754 5760 5765 5771 5777 5783 5789 5796 5801
5748 5742 5735 5729 5722 5716 5710 5704 5698 5694 5689 5685 5681 5677 5674 5671 5669 5668 5669 5670 5672 5674 5677 5681 5685 5689 5694 5700 5706 5712 5719 5725 5732 5738 5744 5750 5756 5762 5768 5774 5781 5787 5794
5740 5733 5726 5719 5712 5705 5698 5692 5686 5681 5676 5671 5666 5662 5658 5655 5653 5651 5650 5651 5653 5656 5659 5663 5668 5673 5679 5685 5692 5698 5705 5712 5719 5726 5733 5739 5746 5752 5758 5765 5772 5778 5785
5732 5724 5717 5709 5702 5694 5687 5681 5674 5668 5663 5657 5651 5646 5642 5638 5636 5633 5632 5632 5634 5637 5641 5645 5650 5656 5663 5669 5676 5684 5691 5699 5706 5714 5721 5728 5735 5741 5748 5755 5762 5769 5777
5723 5715 5707 5699 5692 5684 5677 5670 5663 5656 5649 5643 5637 5631 5626 5622 5618 5615 5613 5613 5615 5618 5622 5627 5633 5639 5646 5653 5661 5669 5676 5684 5692 5701 5708 5716 5724 5731 5739 5746 5753 5760 5767
5715 5706 5698 5690 5682 5674 5666 5659 5652 5644 5637 5629 5623 5616 5610 5605 5601 5597 5595 5595 5597 5599 5603 5608 5614 5621 5629 5636 5645 5653 5661 5670 5678 5687 5695 5703 5712 5720 5728 5735 5743 5751 5759
5706 5698 5689 5681 5673 5664 5656 5648 5640 5633 5625 5617 5610 5603 5596 5590 5585 5582 5579 5578 5579 5581 5585 5590 5596 5604 5612 5620 5629 5637 5646 5655 5664 5673 5683 5691 5700 5709 5718 5726 5733 5741 5749
5698 5690 5681 5672 5664 5655 5647 5638 5630 5622 5614 5606 5598 5590 5583 5577 5572 5568 5565 5564 5564 5566 5569 5574 5580 5587 5596 5604 5613 5623 5632 5641 5651 5661 5671 5679 5687 5696 5706 5714 5722 5730 5739
5691 5682 5673 5664 5655 5646 5638 5629 5621 5612 5603 5595 5587 5579 5572 5565 5560 5556 5553 5552 5552 5554 5557 5561 5567 5574 5582 5590 5600 5610 5619 5628 5636 5647 5657 5666 5675 5684 5694 5703 5712 5721 5729
5684 5674 5665 5656 5647 5638 5629 5620 5612 5603 5594 5585 5577 5569 5562 5555 5550 5546 5543 5542 5542 5543 5546 5551 5556 5563 5570 5578 5587 5597 5607 5616 5625 5635 5644 5654 5664 5673 5683 5693 5702 5711 5720
5676 5667 5657 5648 5639 5630 5622 5613 5604 5595 5586 5577 5569 5560 5553 5547 5542 5538 5535 5534 5534 5535 5538 5542 5547 5553 5560 5569 5577 5587 5596 5604 5614 5623 5633 5643 5653 5663 5672 5682 5691 5701 5710
5669 5660 5650 5641 5632 5623 5614 5605 5596 5588 5579 5570 5562 5553 5546 5540 5535 5531 5528 5527 5527 5528 5531 5534 5539 5545 5552 5560 5569 5578 5587 5595 5604 5614 5624 5634 5643 5652 5662 5671 5680 5690 5699
5663 5653 5644 5635 5626 5617 5608 5599 5590 5582 5573 5565 5556 5549 5541 5535 5530 5525 5522 5521 5521 5522 5524 5528 5532 5538 5545 5553 5562 5570 5579 5587 5596 5606 5615 5624 5633 5642 5651 5661 5670 5679 5688
5657 5648 5639 5630 5621 5611 5602 5594 5585 5577 5569 5560 5552 5545 5538 5531 5526 5521 5518 5516 5516 5517 5520 5523 5528 5534 5540 5548 5556 5564 5573 5581 5589 5598 5606 5615 5624 5633 5643 5652 5661 5669 5679
5652 5643 5634 5625 5616 5607 5598 5589 5581 5573 5565 5557 5550 5543 5536 5530 5524 5519 5516 5514 5514 5515 5518 5521 5526 5532 5538 5545 5552 5560 5568 5576 5584 5592 5600 5608 5616 5625 5634 5643 5652 5660 5669
5647 5638 5629 5621 5612 5603 5594 5586 5577 5570 5562 5555 5548 5541 5535 5529 5524 5520 5516 5515 5515 5516 5518 5521 5526 5531 5536 5543 5549 5557 5564 5572 5579 5586 5594 5602 5610 5618 5626 5635 5644 5652 5660
5643 5634 5626 5617 5609 5600 5591 5583 5575 5568 5560 5553 5547 5541 5535 5530 5526 5522 5519 5517 5517 5517 5519 5522 5527 5531 5536 5542 5548 5555 5561 5568 5575 5582 5589 5596 5603 5611 5619 5627 5635 5643 5652
5639 5630 5622 5614 5606 5597 5589 5581 5573 5566 5559 5553 5547 5541 5536 5532 5528 5524 5522 5521 5520 5521 5522 5524 5528 5532 5537 5542 5547 5553 5559 5565 5572 5578 5584 5591 5598 5605 5612 5620 5628 5636 5644
5635 5627 5619 5611 5603 5595 5587 5580 5572 5565 5558 5552 5547 5542 5537 5534 5530 5527 5525 5524 5524 5524 5525 5527 5530 5534 5538 5542 5547 5552 5557 5563 5569 5574 5580 5586 5593 5599 5606 5613 5621 5629 5636
5631 5624 5616 5609 5601 5594 5586 5579 5572 5565 5558 5553 5548 5543 5539 5535 5532 5530 5528 5527 5527 5527 5528 5530 5532 5535 5539 5543 5547 5551 5556 5561 5566 5571 5577 5582 5588 5594 5601 5608 5615 5622 5630
5628 5621 5614 5607 5600 5593 5586 5579 5572 5566 5559 5554 5549 5545 5541 5538 5535 5532 5530 5529 5529 5530 5530 5532 5534 5536 5539 5542 5546 5550 5554 5559 5563 5568 5573 5579 5584 5590 5596 5602 5609 5616 5624
5625 5618 5612 5605 5599 5593 5587 5580 5574 5567 5562 5556 5552 5547 5544 5540 5537 5535 5533 5531 5531 5531 5532 5533 5534 5536 5539 5542 5545 5548 5552 5556 5560 5565 5569 5574 5580 5585 5591 5597 5604 5611 5618
5621 5615 5609 5604 5598 5593 5587 5581 5576 5570 5564 5559 5554 5550 5547 5543 5540 5537 5535 5533 5532 5532 5532 5533 5535 5536 5538 5541 5544 5547 5550 5553 5557 5561 5566 5570 5575 5581 5587 5593 5599 5606 5614
5618 5612 5607 5602 5597 5592 5588 5583 5577 5572 5567 5562 5558 5554 5550 5547 5543 5540 5537 5535 5534 5533 5533 5534 5535 5536 5537 5539 5542 5545 5548 5551 5555 5559 5563 5567 5572 5578 5584 5590 5596 5603 5610
5614 5609 5605 5600 5596 5592 5588 5583 5579 5574 5570 5565 5561 5558 5554 5551 5547 5544 5541 5539 5537 5536 5535 5535 5535 5536 5537 5538 5541 5543 5546 5550 5553 5557 5561 5565 5570 5577 5583 5589 5595 5601 5608
5610 5606 5602 5598 5594 5591 5587 5584 5580 5576 5572 5568 5565 5562 5558 5555 5552 5549 5546 5544 5542 5540 5539 5539 5539 5539 5540 5541 5543 5545 5547 5550 5554 5558 5562 5567 5572 5577 5583 5589 5595 5601 5608